Weather History for KGJT - October, 2013

Change the Weather History Date:

Sunday, October 6, 2013

  Actual Average Record
Temperature  
Mean Temperature 47 °F 57 °F  
Max Temperature 62 °F 71 °F 85 °F (1975)
Min Temperature 32 °F 44 °F 27 °F (2009)
Degree Days  
Heating Degree Days 18 8  
Month to date heating degree days 86 43  
Since 1 July heating degree days 168 117  
Cooling Degree Days 0 0  
Month to date cooling degree days 0 1  
Year to date cooling degree days 1269 1123  
Moisture  
Dew Point 33 °F    
Average Humidity 63    
Maximum Humidity 89    
Minimum Humidity 36    
Precipitation  
Precipitation 0.00 in 0.04 in 1.15 in (1907)
Month to date precipitation 0.38 0.23  
Year to date precipitation 9.44 7.27  
Snow  
Snow 0.00 in 0.00 in 0.00 in (2013)
Month to date snowfall 0.1 0.0  
Since 1 July snowfall 0.1 0.0  
Since 1 September snowfall 0.1 0.0  
Snow Depth 0.00 in    
Sea Level Pressure  
Sea Level Pressure 30.35 in    
Wind  
Wind Speed 6 mph (SE)    
Max Wind Speed 15 mph    
Max Gust Speed 17 mph    
Visibility 10 miles    
Events      
T = Trace of Precipitation, MM = Missing Value Source: NWS Daily Summary

Daily Weather History Graph

Daily Weather History Graph

Search for Another Location

Airport or City:

Trip Planner

Search our weather history database for the weather conditions in past years. The results will help you decide how hot, cold, wet, or windy it might be!

Date:

Astronomy

Oct. 06, 2013 Rise Set
Actual Time 7:15 AM MDT 6:48 PM MDT
Civil Twilight 6:48 AM MDT 7:15 PM MDT
Nautical Twilight 6:17 AM MDT 7:46 PM MDT
Astronomical Twilight 5:46 AM MDT 8:17 PM MDT
Moon 9:02 AM MDT (10/6) 7:51 PM MDT (10/6)
Length of Visible Light 12h 26m
Length of Day
11h 33m
Waxing Crescent, 4% of the Moon is Illuminated
Oct 6
Waxing Crescent
Oct 11
First Quarter
Oct 18
Full
Oct 26
Last Quarter
Nov 3
New

Hourly Weather History & Observations

Time (MDT) Temp. Windchill Dew Point Humidity Pressure Visibility Wind Dir Wind Speed Gust Speed Precip Events Conditions
12:53 AM 39.0 °F 35.7 °F 30.9 °F 73% 30.40 in 10.0 mi SE 4.6 mph - N/A   Clear
1:53 AM 35.1 °F 32.2 °F 32.0 °F 89% 30.41 in 10.0 mi ESE 3.5 mph - N/A   Clear
2:53 AM 35.1 °F - 30.0 °F 82% 30.40 in 10.0 mi Calm Calm - N/A   Clear
3:53 AM 35.1 °F 29.3 °F 30.0 °F 82% 30.40 in 10.0 mi SE 6.9 mph - N/A   Clear
4:53 AM 33.1 °F 30.0 °F 30.0 °F 89% 30.41 in 10.0 mi ESE 3.5 mph - N/A   Clear
5:53 AM 35.1 °F 26.9 °F 30.0 °F 82% 30.41 in 10.0 mi SE 11.5 mph - N/A   Clear
6:53 AM 36.0 °F 28.0 °F 28.9 °F 76% 30.42 in 10.0 mi SE 11.5 mph - N/A   Clear
7:53 AM 35.1 °F 26.4 °F 30.0 °F 82% 30.45 in 10.0 mi SE 12.7 mph - N/A   Clear
8:53 AM 39.9 °F 32.9 °F 30.0 °F 68% 30.45 in 10.0 mi SSE 11.5 mph - N/A   Clear
9:53 AM 45.0 °F 40.1 °F 30.0 °F 56% 30.44 in 10.0 mi SSE 9.2 mph - N/A   Clear
10:53 AM 48.0 °F - 30.0 °F 50% 30.44 in 10.0 mi SE 9.2 mph - N/A   Clear
11:53 AM 51.1 °F - 30.0 °F 44% 30.41 in 10.0 mi SSE 6.9 mph - N/A   Clear
12:53 PM 53.1 °F - 28.9 °F 40% 30.37 in 10.0 mi South 6.9 mph - N/A   Clear
1:53 PM 57.0 °F - 30.9 °F 37% 30.33 in 10.0 mi Calm Calm - N/A   Clear
2:53 PM 57.9 °F - 30.9 °F 36% 30.30 in 10.0 mi Calm Calm - N/A   Clear
3:53 PM 59.0 °F - 32.0 °F 36% 30.28 in 10.0 mi Variable 3.5 mph - N/A   Clear
4:53 PM 60.1 °F - 33.1 °F 36% 30.26 in 10.0 mi Calm Calm - N/A   Clear
5:53 PM 61.0 °F - 33.1 °F 35% 30.25 in 10.0 mi Calm Calm - N/A   Clear
6:53 PM 55.9 °F - 37.9 °F 51% 30.25 in 10.0 mi Calm Calm - N/A   Clear
7:53 PM 50.0 °F - 42.1 °F 74% 30.27 in 10.0 mi Calm Calm - N/A   Clear
8:53 PM 48.0 °F - 39.9 °F 74% 30.28 in 10.0 mi East 3.5 mph - N/A   Clear
9:53 PM 48.0 °F - 39.0 °F 71% 30.26 in 10.0 mi ESE 6.9 mph - N/A   Clear
10:53 PM 46.0 °F 44.8 °F 39.0 °F 76% 30.26 in 10.0 mi East 3.5 mph - N/A   Clear
11:53 PM 46.9 °F - 37.9 °F 71% 30.25 in 10.0 mi ESE 8.1 mph - N/A   Clear